Thermopolis, WY

11:52 AM MDT on April 26, 2017 (GMT -0600)
Thermopolis

Weather History for KTBX - October, 2012

Change the Weather History Date:

Wednesday, October 17, 2012

  Actual Average (KWRL) Record (KWRL)
Temperature  
Mean Temperature 34 °F -  
Max Temperature 39 °F 60 °F 81 °F (2003)
Min Temperature 28 °F 31 °F 19 °F (1968)
Degree Days  
Heating Degree Days 32    
Moisture  
Dew Point 10 °F    
Average Humidity 41    
Maximum Humidity 64    
Minimum Humidity 22    
Precipitation  
Precipitation 0.00 in - - ()
Sea Level Pressure  
Sea Level Pressure 30.01 in    
Wind  
Wind Speed 19 mph ()    
Max Wind Speed 38 mph    
Max Gust Speed 48 mph    
Visibility 10.0 miles    
Events      
Averages and records for this station are not official NWS values.
T = Trace of Precipitation, MM = Missing Value Source: Averaged Metar Reports

Daily Weather History Graph

Daily Weather History Graph

Search for Another Location

Airport or City:

Trip Planner

Search our weather history database for the weather conditions in past years. The results will help you decide how hot, cold, wet, or windy it might be!

Date:

Astronomy

Oct. 17, 2012 Rise Set
Actual Time 7:30 AM MDT 6:25 PM MDT
Civil Twilight 7:01 AM MDT 6:54 PM MDT
Nautical Twilight 6:27 AM MDT 7:27 PM MDT
Astronomical Twilight 5:54 AM MDT 8:00 PM MDT
Moon 10:13 AM MDT (10/17) 7:58 PM MDT (10/17)
Length of Visible Light 11h 53m
Length of Day
10h 55m
Waxing Crescent, 7% of the Moon is Illuminated
Oct 17
Waxing Crescent
Oct 21
First Quarter
Oct 29
Full
Nov 6
Last Quarter
Nov 13
New

Hourly Weather History & Observations

Time (MDT) Temp. Windchill Dew Point Humidity Pressure Visibility Wind Dir Wind Speed Gust Speed Precip Events Conditions
12:15 AM 35.6 °F 27.5 °F 21.2 °F 56% 29.86 in 10.0 mi NW 11.5 mph - N/A   Clear
12:35 AM 33.8 °F 26.4 °F 21.2 °F 60% 29.87 in 10.0 mi North 9.2 mph - N/A   Clear
12:55 AM 33.8 °F 26.4 °F 21.2 °F 60% 29.87 in 10.0 mi North 9.2 mph - N/A   Clear
1:15 AM 33.8 °F 23.9 °F 21.2 °F 60% 29.87 in 10.0 mi North 15.0 mph - N/A   Scattered Clouds
1:55 AM 32.0 °F 18.6 °F 21.2 °F 64% 29.88 in 10.0 mi NNW 25.3 mph - N/A   Clear
2:15 AM 32.0 °F 18.4 °F 19.4 °F 60% 29.89 in 10.0 mi NNW 26.5 mph 32.2 mph N/A   Mostly Cloudy
2:35 AM 32.0 °F 18.9 °F 19.4 °F 60% 29.91 in 10.0 mi NNW 24.2 mph - N/A   Scattered Clouds
2:55 AM 30.2 °F 16.2 °F 17.6 °F 60% 29.92 in 10.0 mi NW 25.3 mph 31.1 mph N/A   Clear
3:15 AM 32.0 °F 19.2 °F 15.8 °F 51% 29.92 in 10.0 mi NW 23.0 mph 28.8 mph N/A   Clear
3:35 AM 30.2 °F 16.8 °F 15.8 °F 55% 29.93 in 10.0 mi NNW 23.0 mph 27.6 mph N/A   Clear
3:55 AM 32.0 °F 19.2 °F 14.0 °F 48% 29.93 in 10.0 mi NW 23.0 mph 32.2 mph N/A   Clear
4:15 AM 30.2 °F 17.1 °F 12.2 °F 47% 29.94 in 10.0 mi WNW 21.9 mph - N/A   Clear
4:35 AM 30.2 °F 17.1 °F 12.2 °F 47% 29.95 in 10.0 mi WNW 21.9 mph - N/A   Clear
4:55 AM 30.2 °F 16.5 °F 12.2 °F 47% 29.96 in 10.0 mi WNW 24.2 mph 28.8 mph N/A   Clear
5:15 AM 30.2 °F 17.1 °F 12.2 °F 47% 29.97 in 10.0 mi WNW 21.9 mph - N/A   Clear
5:35 AM 30.2 °F 15.9 °F 10.4 °F 44% 29.97 in 10.0 mi West 26.5 mph 33.4 mph N/A   Clear
5:55 AM 30.2 °F 17.1 °F 8.6 °F 40% 29.99 in 10.0 mi West 21.9 mph 29.9 mph N/A   Clear
6:15 AM 30.2 °F 16.8 °F 8.6 °F 40% 29.99 in 10.0 mi West 23.0 mph 27.6 mph N/A   Clear
6:35 AM 30.2 °F 19.8 °F 8.6 °F 40% 29.99 in 10.0 mi West 13.8 mph 17.3 mph N/A   Clear
6:55 AM 30.2 °F 18.9 °F 8.6 °F 40% 29.99 in 10.0 mi West 16.1 mph 21.9 mph N/A   Clear
7:15 AM 30.2 °F 18.9 °F 8.6 °F 40% 29.99 in 10.0 mi WNW 16.1 mph - N/A   Clear
7:35 AM 28.4 °F 18.5 °F 8.6 °F 43% 30.00 in 10.0 mi NW 11.5 mph - N/A   Clear
7:55 AM 28.4 °F 18.0 °F 10.4 °F 47% 30.00 in 10.0 mi WNW 12.7 mph - N/A   Clear
8:15 AM 28.4 °F 18.5 °F 8.6 °F 43% 30.02 in 10.0 mi West 11.5 mph - N/A   Clear
8:35 AM 30.2 °F 20.8 °F 10.4 °F 44% 30.00 in 10.0 mi West 11.5 mph - N/A   Clear
8:55 AM 30.2 °F 20.2 °F 10.4 °F 44% 30.02 in 10.0 mi West 12.7 mph - N/A   Clear
9:15 AM 32.0 °F 22.5 °F 10.4 °F 41% 30.02 in 10.0 mi West 12.7 mph - N/A   Clear
9:35 AM 32.0 °F 23.6 °F 10.4 °F 41% 30.03 in 10.0 mi WSW 10.4 mph - N/A   Clear
9:55 AM 33.8 °F 24.8 °F 8.6 °F 35% 30.03 in 10.0 mi West 12.7 mph 17.3 mph N/A   Clear
10:15 AM 33.8 °F 25.3 °F 6.8 °F 32% 30.03 in 10.0 mi West 11.5 mph - N/A   Clear
10:35 AM 33.8 °F 27.7 °F 5.0 °F 30% 30.04 in 10.0 mi West 6.9 mph - N/A   Clear
10:55 AM 33.8 °F 27.0 °F 8.6 °F 35% 30.03 in 10.0 mi NW 8.1 mph - N/A   Clear
11:15 AM 33.8 °F 28.6 °F 6.8 °F 32% 30.03 in 10.0 mi WNW 5.8 mph - N/A   Clear
11:35 AM 35.6 °F 32.8 °F 5.0 °F 28% 30.02 in 10.0 mi West 3.5 mph - N/A   Clear
11:55 AM 37.4 °F 31.4 °F 5.0 °F 26% 30.02 in 10.0 mi WNW 8.1 mph 17.3 mph N/A   Clear
12:15 PM 35.6 °F 28.6 °F 6.8 °F 30% 30.02 in 10.0 mi WNW 9.2 mph 12.7 mph N/A   Clear
12:55 PM 37.4 °F 26.4 °F 6.8 °F 28% 30.01 in 10.0 mi NW 23.0 mph 33.4 mph N/A   Clear
1:15 PM 37.4 °F 24.2 °F 3.2 °F 24% 30.00 in 10.0 mi WNW 34.5 mph 42.6 mph N/A   Clear
1:35 PM 37.4 °F 23.8 °F 3.2 °F 24% 29.99 in 10.0 mi NW 36.8 mph 43.7 mph N/A   Clear
1:55 PM 39.2 °F 26.8 °F 5.0 °F 24% 29.99 in 10.0 mi NW 33.4 mph 39.1 mph N/A   Clear
2:15 PM 37.4 °F 24.8 °F 3.2 °F 24% 29.99 in 10.0 mi WNW 31.1 mph 41.4 mph N/A   Clear
2:35 PM 39.2 °F 26.8 °F 3.2 °F 22% 29.99 in 10.0 mi WNW 33.4 mph 42.6 mph N/A   Clear
3:15 PM 39.2 °F 27.0 °F 5.0 °F 24% 29.99 in 10.0 mi WNW 32.2 mph 40.3 mph N/A   Clear
3:35 PM 39.2 °F 26.5 °F 5.0 °F 24% 29.99 in 10.0 mi WNW 35.7 mph 40.3 mph N/A   Clear
3:55 PM 39.2 °F 26.5 °F 3.2 °F 22% 30.00 in 10.0 mi NW 35.7 mph 42.6 mph N/A   Clear
4:15 PM 39.2 °F 26.1 °F 5.0 °F 24% 30.00 in 10.0 mi NW 38.0 mph 48.3 mph N/A   Clear
4:35 PM 39.2 °F 27.0 °F 5.0 °F 24% 30.01 in 10.0 mi WNW 32.2 mph - N/A   Clear
4:55 PM 37.4 °F 24.0 °F 5.0 °F 26% 30.01 in 10.0 mi WNW 35.7 mph 42.6 mph N/A   Clear
5:15 PM 37.4 °F 25.2 °F 5.0 °F 26% 30.02 in 10.0 mi NW 28.8 mph 36.8 mph N/A   Clear
5:35 PM 37.4 °F 24.4 °F 5.0 °F 26% 30.02 in 10.0 mi WNW 33.4 mph - N/A   Clear
5:55 PM 37.4 °F 25.2 °F 6.8 °F 28% 30.02 in 10.0 mi NW 28.8 mph 36.8 mph N/A   Clear
6:15 PM 33.8 °F 21.6 °F 10.4 °F 38% 30.04 in 10.0 mi NNW 23.0 mph - N/A   Clear
6:35 PM 32.0 °F 19.5 °F 12.2 °F 44% 30.05 in 10.0 mi NNW 21.9 mph - N/A   Clear
6:55 PM 32.0 °F 19.8 °F 12.2 °F 44% 30.06 in 10.0 mi NNW 20.7 mph - N/A   Clear
7:15 PM 32.0 °F 20.5 °F 12.2 °F 44% 30.08 in 10.0 mi NNW 18.4 mph - N/A   Clear
7:35 PM 32.0 °F 18.9 °F 12.2 °F 44% 30.08 in 10.0 mi NNW 24.2 mph 27.6 mph N/A   Clear
7:55 PM 32.0 °F 17.6 °F 12.2 °F 44% 30.08 in 10.0 mi NNW 29.9 mph 34.5 mph N/A   Clear
8:15 PM 32.0 °F 18.1 °F 10.4 °F 41% 30.08 in 10.0 mi NNW 27.6 mph 36.8 mph N/A   Clear
8:35 PM 32.0 °F 18.4 °F 10.4 °F 41% 30.10 in 10.0 mi NNW 26.5 mph - N/A   Clear
8:55 PM 32.0 °F 17.9 °F 10.4 °F 41% 30.11 in 10.0 mi NNW 28.8 mph 32.2 mph N/A   Clear
9:15 PM 30.2 °F 16.5 °F 12.2 °F 47% 30.12 in 10.0 mi NW 24.2 mph 28.8 mph N/A   Clear
9:35 PM 30.2 °F 16.8 °F 10.4 °F 44% 30.13 in 10.0 mi NW 23.0 mph - N/A   Clear
9:55 PM 30.2 °F 17.1 °F 12.2 °F 47% 30.14 in 10.0 mi NW 21.9 mph - N/A   Clear
10:15 PM 28.4 °F 14.1 °F 12.2 °F 51% 30.15 in 10.0 mi NW 24.2 mph - N/A   Clear
10:35 PM 28.4 °F 14.1 °F 12.2 °F 51% 30.15 in 10.0 mi WNW 24.2 mph - N/A   Clear
10:55 PM 28.4 °F 14.1 °F 12.2 °F 51% 30.16 in 10.0 mi WNW 24.2 mph - N/A   Clear
11:15 PM 30.2 °F 15.9 °F 12.2 °F 47% 30.16 in 10.0 mi WNW 26.5 mph - N/A   Clear
11:35 PM 28.4 °F 13.8 °F 12.2 °F 51% 30.16 in 10.0 mi WNW 25.3 mph - N/A   Clear
11:55 PM 28.4 °F 13.8 °F 12.2 °F 51% 30.17 in 10.0 mi WNW 25.3 mph - N/A   Clear